Lancaster, PA

10:20 PM EST on December 09, 2016 (GMT -0500)
Lancaster

Weather History for KLNS - May, 2014

Change the Weather History Date:

Tuesday, May 13, 2014

  Actual Average Record
Temperature  
Mean Temperature 68 °F -  
Max Temperature 79 °F 75 °F 87 °F (1991)
Min Temperature 55 °F 50 °F 37 °F (2013)
Cooling Degree Days 2    
Growing Degree Days 18 (Base 50)    
Moisture  
Dew Point 60 °F    
Average Humidity 87    
Maximum Humidity 97    
Minimum Humidity 59    
Precipitation  
Precipitation 0.24 in - - ()
Sea Level Pressure  
Sea Level Pressure 30.10 in    
Wind  
Wind Speed 4 mph (ESE)    
Max Wind Speed 15 mph    
Max Gust Speed -    
Visibility 4 miles    
Events Fog , Rain , Thunderstorm    
Averages and records for this station are not official NWS values.
T = Trace of Precipitation, MM = Missing Value Source: NWS Daily Summary

Daily Weather History Graph

Daily Weather History Graph

Search for Another Location

Airport or City:

Trip Planner

Search our weather history database for the weather conditions in past years. The results will help you decide how hot, cold, wet, or windy it might be!

Date:

Astronomy

May. 13, 2014 Rise Set
Actual Time 5:51 AM EDT 8:12 PM EDT
Civil Twilight 5:21 AM EDT 8:42 PM EDT
Nautical Twilight 4:43 AM EDT 9:20 PM EDT
Astronomical Twilight 4:01 AM EDT 10:02 PM EDT
Moon 7:11 PM EDT (5/13) 5:06 AM EDT (5/13)
Length of Visible Light 15h 21m
Length of Day
14h 20m
Waxing Gibbous, 98% of the Moon is Illuminated
May 13
Waxing Gibbous
May 14
Full
May 21
Last Quarter
May 28
New
Jun 5
First Quarter

Hourly Weather History & Observations

Time (EDT) Temp. Dew Point Humidity Pressure Visibility Wind Dir Wind Speed Gust Speed Precip Events Conditions
12:53 AM 63.0 °F 60.1 °F 90% 30.06 in 5.0 mi West 3.5 mph - N/A   Clear
2:17 AM 60.1 °F 59.0 °F 96% 30.04 in 2.5 mi ESE 3.5 mph - N/A   Clear
2:42 AM 60.1 °F 59.0 °F 96% 30.04 in 1.2 mi SE 3.5 mph - N/A   Clear
2:53 AM 60.1 °F 59.0 °F 96% 30.04 in 1.8 mi Calm Calm - N/A   Clear
3:07 AM 59.0 °F 57.0 °F 93% 30.04 in 2.5 mi Calm Calm - N/A   Clear
3:18 AM 61.0 °F 59.0 °F 93% 30.05 in 1.2 mi North 3.5 mph - N/A   Clear
3:35 AM 60.1 °F 59.0 °F 96% 30.05 in 2.0 mi NE 3.5 mph - N/A   Clear
3:53 AM 61.0 °F 60.1 °F 97% 30.05 in 2.0 mi Calm Calm - N/A   Clear
4:04 AM 60.1 °F 59.0 °F 96% 30.05 in 1.0 mi NE 3.5 mph - N/A   Clear
4:11 AM 59.0 °F 57.9 °F 96% 30.06 in 0.5 mi Calm Calm - N/A Fog Fog
4:39 AM 60.1 °F 59.0 °F 96% 30.05 in 1.2 mi Calm Calm - N/A   Clear
4:53 AM 61.0 °F 59.0 °F 93% 30.06 in 2.0 mi Calm Calm - N/A   Clear
5:06 AM 59.0 °F 57.9 °F 96% 30.07 in 1.2 mi Calm Calm - N/A   Clear
5:16 AM 61.0 °F 59.0 °F 93% 30.06 in 2.0 mi Calm Calm - N/A   Clear
5:36 AM 59.0 °F 57.9 °F 96% 30.06 in 1.2 mi Calm Calm - N/A   Clear
5:46 AM 57.9 °F 57.0 °F 97% 30.07 in 0.5 mi NE 3.5 mph - N/A Fog Fog
5:53 AM 57.9 °F 57.0 °F 97% 30.07 in 1.5 mi Calm Calm - N/A   Clear
6:01 AM 57.9 °F 57.0 °F 97% 30.08 in 2.5 mi WSW 3.5 mph - N/A   Partly Cloudy
6:20 AM 59.0 °F 57.9 °F 96% 30.07 in 1.5 mi Calm Calm - N/A   Scattered Clouds
6:53 AM 60.1 °F 59.0 °F 96% 30.06 in 1.0 mi East 4.6 mph - N/A   Clear
7:01 AM 60.1 °F 59.0 °F 96% 30.07 in 0.5 mi ESE 5.8 mph - N/A Fog Fog
7:21 AM 62.1 °F 61.0 °F 96% 30.08 in 1.0 mi ESE 3.5 mph - N/A   Mist
7:29 AM 63.0 °F 61.0 °F 93% 30.09 in 1.5 mi East 3.5 mph - N/A   Partly Cloudy
7:53 AM 64.0 °F 62.1 °F 93% 30.09 in 2.0 mi SW 3.5 mph - N/A   Mostly Cloudy
9:26 AM 69.1 °F 64.0 °F 84% 30.12 in 3.0 mi WSW 3.5 mph - N/A   Haze
9:53 AM 69.1 °F 64.0 °F 84% 30.13 in 4.0 mi West 10.4 mph - N/A Thunderstorm Unknown
10:14 AM 68.0 °F 64.9 °F 90% 30.14 in 0.5 mi SW 5.8 mph - 0.23 in Fog , Rain , Thunderstorm Heavy Rain
10:22 AM 68.0 °F 66.0 °F 93% 30.13 in 2.0 mi SSE 6.9 mph - 0.23 in Rain , Thunderstorm Light Rain
10:53 AM 70.0 °F 66.9 °F 90% 30.14 in 4.0 mi ENE 5.8 mph - 0.24 in   Overcast
12:53 PM 75.9 °F 66.9 °F 74% 30.13 in 9.0 mi East 8.1 mph - N/A   Partly Cloudy
1:53 PM 78.1 °F 66.9 °F 68% 30.13 in 9.0 mi SE 8.1 mph - N/A   Clear
2:53 PM 75.9 °F 66.9 °F 74% 30.12 in 5.0 mi SE 11.5 mph - N/A   Haze
3:53 PM 75.9 °F 66.0 °F 71% 30.11 in 5.0 mi SE 12.7 mph - N/A   Haze
4:53 PM 75.0 °F 63.0 °F 66% 30.10 in 7.0 mi SE 12.7 mph - N/A   Clear
5:53 PM 73.9 °F 60.1 °F 62% 30.12 in 10.0 mi SE 15.0 mph - N/A   Clear
6:53 PM 72.0 °F 57.0 °F 59% 30.14 in 7.0 mi SE 11.5 mph - N/A   Clear
7:53 PM 68.0 °F 55.9 °F 65% 30.15 in 10.0 mi ESE 11.5 mph - N/A   Clear
8:53 PM 63.0 °F 52.0 °F 67% 30.18 in 10.0 mi East 10.4 mph - N/A   Clear
9:53 PM 61.0 °F 51.1 °F 70% 30.20 in 10.0 mi East 8.1 mph - N/A   Clear
10:53 PM 57.9 °F 51.1 °F 78% 30.20 in 10.0 mi East 9.2 mph - N/A   Clear
11:53 PM 55.9 °F 48.9 °F 77% 30.22 in 10.0 mi East 10.4 mph - N/A   Clear